Regional Weather Roundup
Issued by NWS Wakefield, VA

Current Version | Previous Version | Text Only | Print | Product List | Glossary On
Versions: 1 2 3 4 5 6 7 8 9 10 11 12 13 14 15 16 17 18 19 20 21 22 23 24 25 26 27 28 29 30 31 32 33 34 35 36 37 38 39 40 41 42 43 44 45 46 47 48 49 50
002
ASUS41 KAKQ 172315
RWRAKQ

REGIONAL WEATHER ROUNDUP
NATIONAL WEATHER SERVICE WAKEFIELD VA
700 PM EDT TUE OCT 17 2017

Note: "fair" indicates few or no clouds below 12,000 feet with no
significant weather and/or obstructions to visibility. * = Denotes
station may not report precipitation (e.g., rain,snow,etc.),
thunder or fog.

VAZ042-051-052>054-056-180000-
NORTHERN VIRGINIA

CITY           SKY/WX    TMP DP  RH WIND       PRES   REMARKS
WASH NATIONAL  CLEAR     59  34  39 SW7       30.31R
DULLES         CLEAR     49  39  68 CALM      30.29S
FORT BELVOIR   CLEAR     50  42  75 CALM      30.30S
QUANTICO       PTCLDY    54  45  71 NW5       30.32R
FREDERICKSBRG* CLEAR     53  42  66 CALM      30.30S
STAFFORD*      CLEAR     48  43  85 CALM      30.35R
WARRENTON      CLEAR     52  32  46 SE3       30.29S
CULPEPER*      CLEAR     51  37  57 CALM      30.30S
MANASSAS*      CLEAR     51  43  74 CALM      30.30S
LEESBURG*      CLEAR     57  39  51 S5        30.30S
WINCHESTER     CLEAR     50  36  57 CALM      30.28S
FRONT ROYAL*   CLEAR     52  36  54 S3        30.28R
LURAY*         CLEAR     54  39  58 CALM      30.28R
$$

VAZ048-049-060>072-079>083-180000-
CENTRAL AND SOUTH CENTRAL VIRGINIA

CITY           SKY/WX    TMP DP  RH WIND       PRES   REMARKS
RICHMOND       PTCLDY    55  38  52 E3        30.31R
CHESTERFIELD*  NOT AVBL
PETERSBURG*    CLEAR     46  43  87 CALM      30.31R
HANOVER        CLEAR     50  41  71 CALM      30.32R
TAPPAHANNOCK*  CLEAR     50  31  47 CALM      30.32R
QUINTON*       FAIR      51  42  72 CALM      30.31R
CHARLOTTSVILLE CLEAR     57  37  47 SE3       30.29S
GORDONSVILLE*  CLEAR     51  42  70 CALM      30.30R
ORANGE*        CLEAR     50  37  62 CALM      30.30R
LOUISA*        CLEAR     45  41  87 CALM      30.30R
BUMPASS*       FAIR      49  42  76 CALM      30.31R
FARMVILLE*     CLEAR     53  38  58 CALM      30.30R
CREWE*         FAIR      49  42  78 CALM      30.31R
FORT PICKETT*  FAIR      50  38  64 CALM      30.31R
CHASE CITY*    FAIR      52  39  61 CALM      30.31R
CLARKSVILLE*   FAIR      52  43  71 CALM      30.30R
SOUTH HILL*    CLEAR     51  42  71 CALM      30.36R
LAWRENCEVILLE* FAIR      50  40  69 CALM      30.31R
EMPORIA*       CLEAR     46  39  76 CALM      30.33R
$$

VAZ088>098-180000-
SOUTHEAST VIRGINIA

CITY           SKY/WX    TMP DP  RH WIND       PRES   REMARKS
NORFOLK        CLEAR     55  45  68 CALM      30.31R
VIRGINIA BEACH PTCLDY    51  42  71 CALM      30.30R
NORFOLK NAVAL  PTCLDY    51  43  74 NE3       30.33R
WEST POINT*    CLEAR     51  43  73 CALM      30.33R
SALUDA*        FAIR      53  42  67 NE3       30.32R
NEWPORT NEWS   CLEAR     51  44  77 CALM      30.32R
LANGLEY AFB    CLEAR     53  41  62 CALM      30.31R
FORT EUSTIS    CLEAR     54  42  63 CALM      30.29R
WILLIAMSBURG*  CLEAR     54  46  76 CALM      30.33R
HR EXEC AP*    NOT AVBL
FRANKLIN*      CLEAR     52  42  69 E3        30.32R
US460-WAKEFLD  CLEAR     50  47  89 CALM      30.32R
$$

VAZ020-022-025-037-045-180000-
WEST CENTRAL AND SOUTHWEST VIRGINIA

CITY           SKY/WX    TMP DP  RH WIND       PRES   REMARKS
STAUNTON*      CLEAR     55  34  45 CALM      30.30R
WAYNESBORO*    CLEAR     53  35  50 CALM      30.29R
HOT SPRINGS VA CLEAR     48  32  54 CALM      30.30S
LYNCHBURG      CLEAR     51  39  63 CALM      30.30R
DANVILLE       CLEAR     50  43  77 CALM      30.30S
SOUTH BOSTON*  FAIR      53  35  50 CALM      30.30S
MARTINSVILLE   CLEAR     50  44  79 CALM      30.32R
ROANOKE        CLEAR     60  34  37 CALM      30.31R
BLACKSBURG     CLEAR     57  37  47 CALM      30.32R
DUBLIN*        CLEAR     59  34  39 CALM      30.31R
MARION*        CLEAR     57  35  44 CALM      30.31S
HILLSVILLE*    CLEAR     55  27  34 CALM      30.29R
RICHLANDS*     FAIR      57  32  38 CALM      30.29S
WISE*          CLEAR     55  34  44 CALM      30.30S
ABINGDON*      CLEAR     58  39  50 CALM      30.28S
$$

MDZ021>025-VAZ099-100-180000-
SOUTHERN MARYLAND AND THE DELMARVA PENINSULA

CITY           SKY/WX    TMP DP  RH WIND       PRES   REMARKS
PATUXENT RIVER PTCLDY    50  42  74 CALM      30.31S
BAY BRIDGE APT CLEAR     54  39  58 CALM      30.31R
LEONARDTOWN    NOT AVBL
DOVER          CLEAR     51  39  64 SE6       30.29R
GEORGETOWN     CLEAR     49  42  77 CALM      30.32R
EASTON         CLEAR     52  41  66 CALM      30.34S
CAMBRIDGE      CLEAR     50  45  81 CALM      30.31S
SALISBURY      CLEAR     49  45  86 SE3       30.31R
OCEAN CITY     CLEAR     47  43  86 CALM      30.32R
WALLOPS ISLAND CLEAR     52  44  74 CALM      30.32R
ACCOMACK*      CLEAR     48  46  91 CALM      30.32R
$$

NCZ012>017-030>032-180000-
NORTH CENTRAL AND EASTERN NORTH CAROLINA

CITY           SKY/WX    TMP DP  RH WIND       PRES   REMARKS
ROANOKE RAPIDS FAIR      50  43  76 CALM      30.30R
RALEIGH        PTCLDY    55  41  59 E3        30.30R
ELIZABETH CITY CLOUDY    56  44  64 N12       30.30R
AHOSKIE*       CLEAR     53  44  73 CALM      30.31R
EDENTON*       CLOUDY    56  45  68 CALM      30.31R
CURRITUCK*     CLOUDY    55  46  73 NW3       30.30S
KILL DEVIL HLS CLOUDY    59  45  60 CALM      30.27R
MANTEO         CLOUDY   N/A N/A N/A NE13G20   30.28R
CAPE HATTERAS  CLOUDY    62  50  64 NE9G17    30.25R
TARBORO*       NOT AVBL
GOLDSBORO      CLEAR     58  40  51 N5        30.27R
WASHINGTON     CLEAR     56  44  63 NE6       30.29R
GREENVILLE     CLEAR     57  43  58 NE5       30.29S
NEW BERN       CLOUDY    57  46  66 E9        30.29R
WILMINGTON     CLOUDY    56  45  66 NE5       30.27R
$$

VAZ048-180000-
ELSEWHERE

CITY           SKY/WX    TMP DP  RH WIND       PRES   REMARKS
HARRISBURG PA  CLEAR     54  44  69 SW6       30.26R
BALTIMORE      PTCLDY    54  40  59 S6        30.29S
ANNAPOLIS      CLEAR     56  41  57 S3        30.30S
ANDREWS AFB    CLEAR     51  42  71 S3        30.29S
PHILADELPHIA   CLEAR     58  36  43 S8        30.29R
HENDERSON NC   CLEAR     52  37  57 CALM      30.30R
GREENSBORO     PTCLDY    56  39  53 E7        30.29R
ROCKY MOUNT    CLEAR     53  45  74 CALM      30.29S
$$

VAZ100-180000-
MARINE

STATION/POSITION TIME  TEMP    WIND        PRES    WAVE   SWELL
                       AIR SEA DIR/SP/G            HT/PER HT/PER
                 (UTC) (F)     (DEG/KT/KT) (MB)    (FT/S) (FT/S)
BRANDYWINE LGT   2248          190/  1/  3 1026.6R
CAPE MAY NJ      2248   53 65  170/  3/  4 1025.8R
LEWES DE         2248   53 64  200/  2/  2 1026.1R
15NM E FENWICK I 2250   56 68   10/  6/ 10 1026.7R   4/ 7   3/ 7
OCEAN-CITY-INLET 2248   55 67   70/  2/  4 1026.9R
WACHAPREAGUE VA  2248   52 65   CALM  /  1 1026.4R
THOMAS POINT MD  2300   58 68  190/  3/  4   N/A
GOOSES REEF MD   2250   58      CALM  /  2 1022.8F
COVE POINT MD    2248   57      20/  2/  3 1027.0R
SOLOMONS ISLAND  2248   56 70   40/  4/  5 1025.9R
BISHOPS HEAD MD  2248   57 62  260/  4/  4 1026.6R
PINEY POINT MD   2248           70/  4/  5   N/A
POTOMAC MD       2250   58      70/  4/  6 1025.9S
CAMBRIDGE MD     2248                      1027.1R
LEWISETTA VA     2248   58 65  110/  4/  5 1026.3S
RAPPAHANNOCK LGT 2248          360/  5/  9 1026.9R
STINGRAY PT      2250   57      60/  6/ 10 1026.6S
YORK RVR RNG VA  2248   56      50/  8/ 11 1027.0R
YORKTOWN VA      2248   57 71   50/  7/  9 1026.2R
JAMESTOWN VA     2250           80/  4/  4   N/A
DOMINION TERM VA 2248   56      40/  3/  4 1026.7R
KIPTOPEKE VA     2248      69   30/  4/  5   N/A
CAPE HENRY VA    2248   57      40/  6/ 10   N/A
WILLOUBY STN VA  2248           10/  5/  7 1026.4R
S CRANEY ISL VA  2248   57      40/  5/  7 1026.2R
CAPE HENRY BUOY  2230      70                N/A     4/11   2/11
1ST LANDING BUOY 2250   57                 1026.2R
CAPE CHARLES BUO 2251      70                N/A     3/10   2/11
64NM E OF VA BCH 2250   60 67   20/ 16/ 19 1025.3R   6/ 7
DUCK PIER NC     2248   61 69   20/ 14/ 18 1025.0R
44100 DUCK FRF   2235      71                N/A     6/ 7   2/11
44056 DUCK FRF   2230      71                N/A     5/ 8   2/11
OREGON INLET NC  2248           30/ 11/ 15 1024.8R
HATTERAS NC      2248   62 68   30/ 13/ 17 1024.3R
DIAMOND SHLS NC  2250   65 81   10/ 19/ 23 1023.1R   7/10   5/10
CAPE LOOKOUT NC  2300   60      10/ 14/ 17 1024.4R
$$




USA.gov is the U.S. government's official web portal to all federal, state and local government web resources and services.